User: anonymous   Login
Location: *
(17.3280°S, 114.7300°W)
Time: 20:12:03
(UTC+00:00)
Language:

SAR-Lupe-1 - Orbit

View from above orbital plane
View from above orbital plane
View from above satellite
View from above satellite

Ground track
Ground track

The orbit data is extracted from the following two-line orbital elements,

1 29658U 06060A   20301.73811820 0.00000865  00000-0  32065-4 0    00
2 29658  98.1439 120.2124 0013137 197.8000 162.3938 15.27569939    06
Epoch (UTC): 27 October 2020 17:42:53
Eccentricity: 0.0013137
inclination: 98.1439°
perigee height: 474 km
apogee height: 492 km
right ascension of ascending node: 120.2124°
argument of perigee: 197.8000°
revolutions per day: 15.27569939
mean anomaly at epoch: 162.3938°
orbit number at epoch: 0

The dashed part of the orbit path shows where the satellite is in the earth's shadow,  

DLR